RH
7 8 8 9 10 12 13 15 16 17 16 14 12 10 8 7 7 6 5 4 3 3 2 2 2 2 2 2 2 2 2 2 2 2 2 2 2 2 1 2 1 2 3 4 9 13 18 22 24 24 23 22 22 27 34 39 43 45 48 47 47 61 68 63 66 80 87 87 91 94 92 90 89 86 83 70 66 74 65 57 46 21 6 5 8 9 10 12
7 7 7 8 9 10 12 13 16 17 18 17 15 13 11 9 8 7 7 5 4 3 3 3 2 2 2 2 2 2 2 2 2 2 2 2 1 2 1 2 1 2 2 3 4 6 9 14 18 21 23 22 21 24 30 37 40 44 50 50 52 66 74 64 71 86 80 82 89 91 91 88 88 86 77 72 78 78 62 55 48 28 9 4 7 8 10 11
7 7 7 8 9 10 11 12 14 16 18 19 19 17 14 12 10 8 8 7 6 5 4 3 3 3 2 2 2 2 2 2 3 2 2 2 2 2 2 2 1 2 2 2 2 3 4 6 9 14 19 21 22 23 28 35 37 43 50 53 59 70 76 62 73 90 77 76 81 86 89 85 87 83 74 71 69 66 57 51 51 42 17 4 7 7 10 11
9 8 8 8 8 9 10 12 13 15 17 19 21 21 19 16 13 11 9 8 7 6 5 4 3 3 3 3 2 2 2 3 3 3 3 2 2 2 2 2 2 2 2 2 2 2 3 3 5 8 14 17 21 24 27 31 34 44 51 60 69 71 74 66 75 92 83 78 77 78 79 76 80 76 74 72 62 62 60 50 54 54 25 4 7 6 9 11
10 10 9 8 8 9 10 12 13 15 17 18 20 21 22 20 17 15 12 10 9 8 7 5 4 3 3 3 3 3 2 3 3 3 3 3 3 2 2 2 2 2 1 2 2 2 2 3 4 4 10 14 19 22 25 29 31 46 55 61 70 66 71 74 79 93 89 79 76 78 74 71 76 73 77 74 62 63 65 59 57 56 33 8 6 6 8 10
12 11 10 10 9 9 10 12 14 16 18 19 20 21 22 23 22 19 15 13 11 9 8 7 6 4 4 3 3 3 2 3 3 3 3 3 3 3 3 2 2 2 2 2 1 2 2 3 4 4 8 10 15 18 20 26 26 43 59 60 65 67 75 82 83 93 93 80 73 77 74 72 74 71 78 77 68 66 64 67 59 49 38 18 8 6 7 9
14 13 12 11 10 10 10 11 13 16 19 20 21 22 23 23 24 23 19 16 13 11 10 8 7 5 4 4 3 3 3 3 3 3 3 3 4 3 3 3 3 2 2 2 1 2 2 3 5 4 7 7 10 14 14 19 19 35 58 61 67 77 80 82 86 91 94 88 76 73 74 76 73 69 76 73 70 70 60 62 58 41 35 27 14 7 6 8
15 14 14 13 12 11 11 11 12 15 18 21 23 24 24 25 25 24 23 20 16 14 11 10 8 7 5 4 4 4 3 3 3 3 3 3 4 4 4 3 3 3 2 2 2 2 2 3 5 5 6 5 6 10 10 13 16 28 50 57 64 82 85 77 85 95 96 96 86 76 77 84 82 78 81 73 70 74 63 59 60 44 33 31 20 9 6 7
16 16 15 14 14 13 12 12 12 13 16 20 23 25 25 26 26 26 25 23 19 16 14 12 9 8 7 5 4 4 3 4 4 3 3 3 3 4 4 4 3 3 3 3 2 2 2 2 5 6 4 4 4 6 9 12 16 25 42 54 59 79 92 80 80 94 98 97 93 83 77 82 89 88 85 78 75 75 65 59 61 50 37 33 25 14 7 6
18 17 16 16 16 15 14 13 13 13 15 18 21 24 25 26 27 28 28 26 23 19 16 14 11 9 7 6 5 4 4 4 4 4 4 3 3 4 4 4 4 4 3 3 3 2 3 3 4 5 3 5 4 7 10 9 18 25 30 51 68 77 89 86 77 85 98 97 91 86 79 79 85 88 87 82 81 79 68 56 54 53 42 36 30 21 13 7
20 19 18 18 17 17 17 15 15 15 16 17 19 22 24 25 26 27 28 28 27 23 19 16 13 11 8 7 5 4 4 4 5 5 5 4 3 4 4 5 4 4 4 3 4 3 3 3 3 4 3 4 4 7 8 6 22 29 25 49 76 79 85 93 80 74 93 96 88 90 87 83 83 86 88 85 84 83 73 55 51 55 46 37 34 29 22 12
22 21 20 19 19 19 19 18 18 18 17 18 19 20 22 24 25 25 26 27 28 27 24 20 16 13 10 8 6 5 4 4 5 5 6 5 4 3 3 4 4 4 5 4 4 3 3 3 3 3 4 4 3 4 5 6 23 32 35 58 76 82 91 99 84 69 85 94 90 95 95 91 90 86 86 87 87 81 72 63 58 57 48 38 35 34 32 20
24 23 22 21 21 21 21 20 20 20 20 20 19 20 20 22 23 24 24 24 26 27 28 25 20 16 13 10 8 6 5 4 5 5 6 6 5 4 3 4 4 4 5 5 4 4 4 3 3 3 4 4 3 4 4 5 19 34 50 68 78 83 86 92 88 76 84 92 89 94 98 94 89 83 81 86 91 84 77 78 72 60 49 40 37 38 38 28
25 26 24 23 23 23 22 21 21 21 20 20 20 20 20 20 21 22 23 23 23 25 27 28 26 22 17 12 10 7 6 4 4 5 5 5 5 5 4 3 4 4 5 5 5 5 4 3 3 3 3 4 3 5 6 3 11 30 49 62 71 77 76 83 92 85 86 92 88 91 96 89 79 80 84 87 95 93 88 93 85 64 51 44 40 40 39 32
27 27 26 25 25 24 23 23 22 21 20 20 19 19 19 18 19 19 20 21 22 23 24 26 27 27 23 17 12 9 7 5 5 5 4 5 6 6 5 4 4 4 5 5 5 5 4 4 3 3 2 3 5 6 7 6 6 20 40 51 58 69 78 86 92 89 88 87 82 83 86 81 79 82 86 88 93 95 95 99 91 71 56 48 44 43 41 34
29 29 28 28 27 25 25 24 22 22 21 20 19 19 18 17 17 16 16 17 18 20 22 23 24 26 26 22 17 12 9 7 5 5 5 5 6 7 7 5 4 4 4 5 5 5 5 5 3 3 3 2 6 8 7 9 8 14 32 48 57 67 78 85 89 92 94 87 78 77 73 74 81 83 84 90 92 92 97 100 93 83 70 55 46 45 44 37
30 30 31 30 28 26 25 24 23 21 19 19 18 18 17 16 15 14 14 13 14 16 17 20 21 23 25 25 22 16 11 9 6 5 5 5 5 7 8 7 5 4 4 5 5 6 5 5 4 3 3 2 5 7 8 12 16 21 33 50 63 68 73 84 91 91 91 84 78 77 73 73 80 80 81 89 94 93 97 99 97 96 87 65 50 48 46 41
31 32 33 31 29 27 25 23 21 19 17 16 15 15 15 14 13 12 11 11 10 11 12 14 16 19 21 23 24 21 16 11 8 6 4 5 5 6 8 8 7 5 4 4 4 5 5 5 5 4 4 3 4 5 9 20 31 41 51 60 68 71 75 85 93 92 85 82 85 87 79 76 82 84 80 80 87 92 95 100 99 100 95 73 57 54 49 43
33 33 33 31 29 25 22 19 16 14 12 10 10 10 10 10 10 9 9 8 7 7 8 9 12 15 17 19 22 23 21 15 10 7 5 5 5 5 7 8 8 7 5 4 4 5 5 5 5 5 4 3 3 5 15 33 44 50 56 58 60 67 70 74 83 86 81 82 92 95 83 77 82 86 81 75 81 88 91 95 94 98 98 77 62 59 53 47
34 34 34 30 27 22 18 14 11 9 7 6 5 5 5 5 5 5 5 5 5 5 5 5 8 11 14 16 18 20 20 18 14 9 6 6 5 5 7 7 9 8 6 5 4 4 5 5 5 5 4 4 4 6 20 41 49 48 49 49 51 58 61 61 68 74 74 77 84 88 85 80 77 77 78 75 79 88 94 94 89 95 100 84 69 63 55 50
35 35 33 28 24 18 12 9 6 4 4 3 2 2 3 2 2 3 3 3 3 3 3 4 5 6 9 13 15 17 17 18 17 12 8 6 5 5 6 7 8 9 9 7 5 5 4 5 5 5 6 5 4 6 19 39 51 49 43 43 46 50 54 54 57 63 65 70 76 82 88 85 74 71 75 75 75 84 93 95 93 96 101 91 79 70 57 50
36 35 31 26 19 12 8 5 3 3 2 2 2 2 2 1 2 2 2 3 2 2 2 2 3 4 6 8 10 14 14 15 16 14 11 7 6 6 6 7 8 10 11 9 7 5 4 5 5 6 6 5 5 5 13 32 48 48 39 39 41 43 47 47 51 55 57 69 77 80 87 88 78 70 72 75 74 76 80 87 92 95 100 98 89 81 66 53
37 34 28 21 14 8 5 3 2 3 2 2 2 1 2 3 2 1 2 3 2 3 3 2 3 3 4 5 7 9 9 11 12 13 13 9 6 6 6 6 7 10 11 10 9 6 5 5 5 6 6 5 6 4 8 24 34 36 37 38 35 36 39 41 56 62 60 74 78 73 81 83 80 77 73 72 71 68 69 78 88 89 95 102 95 89 78 60
36 31 23 16 9 5 3 2 3 3 2 3 2 2 4 3 4 4 3 3 3 4 3 2 2 2 3 3 4 5 5 7 9 10 11 9 8 6 6 6 6 9 10 10 10 9 8 6 6 6 6 6 7 4 6 14 21 25 32 39 36 37 42 52 79 87 72 74 72 66 75 80 83 85 77 70 69 69 70 77 88 87 89 97 95 91 84 70
34 26 17 10 5 3 3 3 3 3 3 3 2 3 2 3 5 3 3 5 5 4 6 7 4 2 3 2 3 4 4 5 6 8 8 8 8 7 6 6 7 8 10 12 12 11 10 8 7 6 6 6 6 7 5 7 16 17 29 55 54 46 56 68 86 95 85 80 74 67 75 87 93 89 77 69 69 75 80 83 90 92 91 95 95 91 85 76
31 21 13 6 3 4 3 3 4 3 3 2 2 3 2 4 4 2 7 6 4 9 11 11 12 7 3 3 3 2 3 4 4 5 7 8 8 7 6 6 7 9 13 16 14 14 13 10 8 6 6 7 5 8 5 5 13 14 38 77 73 54 65 76 75 81 87 91 88 80 83 96 100 90 77 68 65 75 86 89 93 97 98 99 96 92 87 82
27 16 9 4 3 4 3 4 4 2 3 3 3 4 4 6 5 6 8 4 15 32 29 22 25 21 12 8 6 3 4 5 4 4 5 7 8 7 7 7 7 10 14 17 14 15 16 12 10 7 6 6 5 7 6 7 7 16 54 87 80 61 58 69 81 86 88 95 99 91 86 94 99 94 84 73 68 75 83 87 91 94 95 96 95 91 89 87
22 12 6 4 4 4 4 4 3 3 4 3 4 5 6 8 7 9 9 8 24 41 41 36 36 33 27 22 16 9 8 8 9 9 4 4 7 7 7 7 9 10 11 13 13 14 16 15 13 10 8 6 6 6 6 9 3 17 61 86 86 73 54 67 94 94 85 90 100 98 88 89 95 95 90 83 81 78 77 85 91 91 91 93 94 91 91 89
17 8 5 5 4 4 4 4 3 5 4 4 5 6 7 9 10 11 8 14 33 43 45 48 48 46 41 36 29 16 9 9 13 16 10 4 6 7 9 12 12 12 10 9 12 15 17 18 15 12 11 6 7 7 5 10 2 14 59 85 90 82 70 83 95 88 85 82 89 97 92 88 89 94 97 92 91 85 79 87 93 92 91 94 97 95 94 91
12 6 5 5 4 5 4 4 5 5 5 6 7 9 14 14 10 10 7 21 50 58 52 53 56 57 51 43 33 19 14 12 12 20 17 10 11 10 10 13 12 12 12 9 12 16 17 19 17 14 14 9 9 8 5 10 4 17 63 88 89 85 84 97 93 87 94 84 79 86 82 81 82 91 101 95 94 95 89 87 89 89 89 92 98 97 95 93
8 5 6 6 5 5 4 5 6 6 7 8 11 21 32 27 14 15 21 38 60 61 51 51 55 56 50 41 28 20 25 20 19 34 32 21 24 20 13 17 17 14 15 12 15 21 20 21 17 13 14 12 11 8 6 9 5 22 65 80 80 82 85 98 98 95 98 88 86 85 75 75 76 83 95 91 90 96 96 93 91 89 87 87 92 96 98 94
7 5 6 6 6 5 4 6 7 7 8 9 20 35 43 38 29 33 43 52 65 67 58 56 60 50 33 27 25 26 35 31 32 55 61 46 43 35 21 24 26 20 21 21 24 29 26 24 23 19 17 16 15 11 7 9 6 16 42 56 70 82 83 94 100 98 96 89 91 92 77 68 70 77 85 86 89 90 90 92 92 89 86 83 87 94 99 94
7 5 6 6 7 6 4 8 9 9 9 16 37 53 55 53 51 56 60 58 67 75 65 61 62 46 26 26 29 33 46 48 46 67 79 69 63 51 36 43 47 39 41 44 43 45 39 35 37 33 27 23 19 14 8 7 8 10 19 39 70 88 88 96 100 97 96 88 88 95 83 62 57 68 72 74 84 86 83 86 88 88 85 82 89 97 99 94
7 6 6 7 8 6 5 10 12 11 15 29 52 63 60 59 62 65 65 61 61 60 59 63 57 45 45 50 46 45 59 65 64 76 80 70 70 64 58 76 82 69 74 74 64 67 65 59 60 55 43 31 20 18 14 8 7 8 11 31 70 95 97 99 99 96 91 80 84 99 93 64 47 54 62 65 73 79 80 81 82 83 83 84 90 93 94 90
6 8 6 7 9 6 6 13 14 15 28 41 55 62 60 60 66 68 64 62 59 52 58 67 58 53 64 68 60 59 68 73 79 89 83 73 80 80 77 91 89 79 88 88 75 77 81 83 83 71 57 45 36 29 21 14 11 10 8 22 63 97 100 94 94 95 86 73 83 100 93 72 56 57 66 71 72 74 73 73 74 76 81 87 90 88 89 89
9 10 5 9 12 5 7 19 17 18 38 47 46 51 53 50 53 57 57 58 59 59 64 67 61 64 72 71 65 66 72 77 85 92 86 81 85 83 81 85 76 71 81 84 79 77 83 94 92 74 60 53 53 43 27 24 24 17 8 14 53 90 94 87 88 88 78 68 77 89 84 80 76 69 72 77 76 73 68 63 64 71 80 88 90 89 88 88
12 9 6 13 14 5 10 26 23 18 37 51 49 44 41 39 36 34 39 45 54 66 67 61 61 68 76 78 71 67 72 76 82 94 93 86 86 80 82 84 67 61 78 81 70 66 79 98 96 85 76 61 57 51 36 32 29 23 14 9 38 78 85 80 82 82 69 55 62 75 79 89 88 70 66 73 74 72 70 65 61 66 79 87 88 87 86 85
12 7 10 15 14 8 12 30 34 20 22 44 55 45 35 41 38 23 22 31 48 68 70 63 62 66 76 85 76 70 78 76 77 92 90 83 88 82 83 91 67 53 78 83 62 56 75 96 96 92 92 79 67 59 47 37 29 26 25 15 27 62 74 67 71 82 74 52 53 70 81 93 93 75 63 63 63 63 64 65 64 62 68 77 81 82 84 84
11 7 12 16 13 10 12 31 39 20 15 40 57 44 30 37 42 28 19 25 41 56 62 66 70 69 75 80 71 71 80 72 63 73 73 73 87 82 74 84 75 65 81 81 67 66 74 89 95 89 92 92 83 72 59 46 34 27 27 23 28 53 70 64 62 79 83 62 52 59 66 72 78 76 65 53 53 58 56 58 63 60 58 66 72 72 75 79
10 7 13 15 13 8 11 28 32 19 27 48 50 37 25 26 35 32 20 24 39 43 44 60 71 71 76 75 65 68 73 67 62 69 68 62 74 83 75 68 68 83 96 83 75 78 75 85 97 91 90 92 86 81 70 58 53 46 34 26 33 56 75 72 68 78 81 74 67 55 48 52 55 56 50 39 41 51 56 59 63 62 56 60 69 70 71 77
8 9 14 14 12 8 10 22 24 18 28 36 29 28 26 23 30 36 29 30 41 39 39 63 75 69 74 78 73 71 70 67 69 71 66 55 58 78 86 73 59 72 94 89 80 82 79 85 96 92 85 87 89 83 68 60 66 60 42 30 40 64 79 76 78 83 78 81 84 66 54 61 54 39 36 39 40 44 55 65 66 65 60 57 64 72 79 84
8 11 16 13 9 8 10 16 18 12 14 15 15 26 34 30 27 32 35 38 43 40 40 60 68 59 65 79 82 81 78 77 72 61 52 50 53 64 77 79 64 55 69 81 81 83 84 86 94 93 79 78 93 85 65 66 73 63 52 46 46 65 83 81 79 83 79 80 85 75 66 67 55 40 40 50 54 50 57 73 68 57 56 59 65 74 81 84
8 12 15 12 9 10 10 11 11 9 9 11 15 21 29 34 31 26 28 35 44 49 49 56 57 52 62 78 82 81 81 83 79 65 53 52 57 60 61 70 72 59 55 62 69 80 87 84 89 96 86 82 93 87 72 80 82 74 77 72 58 69 92 90 77 78 82 80 81 81 76 67 53 46 50 57 63 60 62 78 76 53 47 54 62 70 72 74
9 12 13 10 10 11 10 10 9 9 10 11 13 14 14 25 34 30 24 27 36 47 57 67 65 57 63 72 73 72 73 74 74 72 72 73 71 64 57 60 71 73 63 53 52 63 79 86 91 97 97 95 96 89 83 88 84 82 94 92 77 81 97 94 76 75 86 89 86 83 79 69 54 51 57 58 63 72 78 88 82 59 51 56 58 61 63 65
10 13 15 15 14 11 9 11 12 12 12 11 10 10 10 15 25 31 27 23 27 33 47 65 68 60 64 72 73 70 67 68 69 70 77 85 83 72 62 60 64 73 76 66 51 46 57 81 98 100 99 100 100 94 92 94 90 88 96 99 92 91 95 92 76 69 81 91 90 85 81 72 58 56 62 57 58 75 90 95 84 68 68 73 68 64 63 64
11 13 17 20 21 19 15 12 12 13 14 14 11 9 11 12 16 26 28 22 23 27 35 50 55 48 55 70 75 71 66 67 71 70 66 71 78 76 71 69 64 66 74 76 67 51 42 60 87 99 101 99 96 93 93 94 95 96 97 98 99 96 92 87 74 65 73 84 85 83 82 74 63 59 59 56 58 68 79 89 85 74 74 75 69 64 63 65
12 13 15 15 16 18 15 12 13 15 15 16 15 10 10 10 9 19 29 25 22 22 25 36 41 39 50 64 68 72 76 76 77 77 71 69 73 72 67 68 69 67 69 75 78 68 49 47 63 82 97 99 92 90 91 92 96 98 97 95 97 97 89 80 71 63 68 79 81 80 79 75 70 65 59 59 61 60 67 84 88 79 74 71 64 56 55 58
12 14 14 11 10 12 12 13 13 15 15 16 17 13 10 10 8 13 24 27 23 21 21 25 27 35 55 67 68 77 87 85 84 88 88 84 80 74 65 61 62 64 68 74 79 78 66 53 51 63 82 94 93 91 92 95 96 96 94 92 92 94 89 80 75 67 64 71 77 76 73 70 69 69 67 65 61 57 66 84 90 84 79 75 66 55 52 53
11 14 15 12 11 10 12 15 13 15 21 19 16 16 13 10 8 9 16 22 24 23 24 23 18 25 43 52 56 71 81 79 81 83 81 78 77 76 73 70 67 65 67 72 75 75 70 61 60 71 84 90 89 85 84 86 89 90 89 87 89 94 92 85 83 79 70 67 69 69 67 63 62 65 67 65 62 63 73 86 92 91 85 80 73 64 59 58
12 15 16 15 16 13 11 12 11 17 27 22 14 15 16 12 9 8 9 12 17 21 23 25 22 21 28 31 32 42 49 55 67 73 68 64 66 69 73 78 79 72 69 73 74 72 68 59 59 75 94 97 88 81 76 70 73 82 85 84 88 93 90 82 80 81 75 67 62 61 63 61 57 57 62 64 64 68 80 92 96 95 89 83 78 72 68 66
12 14 16 16 17 15 13 13 11 15 23 20 15 15 16 14 12 10 9 7 8 12 14 18 20 19 22 25 25 24 23 26 43 63 69 67 64 65 68 73 78 77 76 75 74 74 74 67 58 64 87 99 93 86 82 73 69 77 81 82 85 89 87 79 72 72 73 71 66 63 65 66 61 55 55 55 55 62 78 89 91 88 85 80 76 74 73 71
12 14 14 14 15 13 14 14 13 16 20 16 14 16 15 15 15 14 13 11 9 9 8 9 10 11 13 17 20 23 22 19 24 38 54 62 62 61 63 66 68 72 76 74 70 71 76 78 71 65 78 94 95 91 90 83 77 79 83 83 82 85 86 80 72 68 68 69 69 70 72 72 69 63 55 47 48 57 69 80 84 84 81 77 74 73 72 72
Wind_Speed
19 20 20 21 21 21 21 22 22 23 24 24 23 24 24 24 23 23 23 23 24 24 25 25 24 25 25 24 23 22 21 21 21 22 22 21 22 21 22 21 18 18 19 20 23 25 25 24 22 20 18 16 15 13 12 12 10 10 9 6 4 3 3 4 6 7 7 10 14 21 23 20 17 14 12 8 6 8 7 7 8 7 7 11 14 13 11 11
18 19 20 21 22 22 22 22 22 23 24 25 25 25 25 25 25 25 24 24 24 25 25 25 26 25 25 25 25 24 23 22 22 23 22 22 23 22 22 22 19 19 19 19 22 23 24 24 24 22 20 19 16 14 14 13 11 11 9 6 5 2 2 2 5 7 11 14 16 18 17 16 15 14 12 9 7 7 6 6 6 7 7 10 14 13 11 10
18 19 20 21 22 22 22 22 23 23 24 25 25 26 26 26 26 27 26 26 25 25 25 26 26 26 26 26 26 25 24 24 24 23 22 23 24 23 23 23 21 21 21 20 20 20 21 21 23 22 21 20 18 16 15 14 13 11 9 6 5 2 1 1 4 8 12 15 15 14 13 12 12 13 12 10 7 5 4 6 6 6 6 8 12 13 12 10
18 19 19 20 22 22 23 23 23 23 24 25 25 26 27 27 27 27 27 27 27 26 26 26 26 27 27 27 27 27 26 25 25 23 23 23 23 23 23 23 22 22 21 20 20 19 18 18 19 20 20 20 18 17 16 15 14 12 10 7 5 3 1 0 3 8 11 13 14 14 12 10 10 11 11 9 7 5 5 5 5 5 5 7 10 12 12 10
19 19 20 20 21 23 23 24 24 24 24 25 25 26 27 28 28 28 28 28 28 28 27 27 26 27 27 28 28 28 27 27 26 25 25 24 23 24 23 24 23 22 21 21 20 19 17 16 16 17 19 20 19 19 18 17 15 13 11 9 7 4 1 1 2 7 8 10 13 13 13 11 10 9 10 8 5 5 5 5 5 6 5 6 7 10 12 11
21 20 20 20 21 22 24 24 25 25 25 25 25 26 27 28 29 29 29 28 29 29 29 28 27 27 27 28 29 29 28 27 27 27 27 25 24 24 24 24 23 22 22 21 21 19 18 16 15 15 17 20 21 21 21 19 18 16 13 12 9 5 3 3 4 6 6 8 11 13 13 12 11 10 9 7 5 5 5 5 5 6 6 5 5 7 10 11
22 22 21 21 21 22 23 25 26 26 26 26 26 26 27 28 29 29 29 29 29 30 30 29 28 28 28 28 29 30 30 28 28 28 28 27 26 25 25 24 23 23 23 22 21 20 19 17 15 16 18 20 21 22 23 22 21 18 14 13 11 7 6 6 6 6 7 7 9 11 12 11 11 10 9 8 6 5 4 4 5 7 6 4 5 6 8 11
24 23 23 22 22 22 23 24 26 27 27 27 27 27 27 28 29 30 30 30 30 30 30 30 30 29 28 28 29 29 30 30 29 29 28 28 28 26 26 25 23 23 24 23 23 22 20 18 17 17 19 20 21 22 23 22 22 20 16 15 14 10 8 9 8 8 8 8 8 9 10 10 10 10 10 9 7 6 5 4 5 7 6 5 6 7 8 10
25 24 24 23 23 22 22 23 25 26 28 28 28 28 28 28 28 29 30 31 31 31 31 31 30 30 29 29 29 30 31 31 30 29 29 29 29 29 28 26 24 24 24 24 24 22 20 19 19 20 20 19 20 21 22 23 23 21 18 17 15 13 10 10 10 11 11 10 10 9 9 10 10 9 9 9 7 7 6 5 6 6 5 5 5 7 8 9
26 25 25 24 23 23 23 23 24 25 27 29 29 29 29 29 29 29 30 31 32 32 31 31 31 30 30 30 30 31 31 30 30 31 30 30 30 30 30 28 26 25 25 24 24 23 21 21 22 22 21 20 19 20 21 23 22 21 21 18 15 15 13 11 12 14 12 10 11 11 9 10 10 9 10 10 9 8 8 6 6 5 5 5 4 6 8 8
26 26 25 24 24 23 23 23 24 24 26 28 30 30 29 29 29 29 30 31 32 32 32 32 31 31 31 31 32 31 31 30 31 32 32 31 30 31 31 30 28 26 25 25 24 24 24 24 24 23 22 22 21 20 21 21 21 22 22 19 17 16 13 11 14 16 15 11 11 11 10 10 10 10 9 10 10 11 10 7 7 6 5 5 4 5 7 8
27 26 26 25 24 23 22 23 23 24 25 27 29 30 30 30 29 29 30 30 32 33 33 33 32 32 32 32 33 32 30 30 31 31 33 33 32 31 32 32 30 28 27 26 26 26 26 26 25 24 23 23 20 20 21 22 23 22 21 18 18 18 15 14 16 17 17 14 11 11 10 10 10 10 9 9 12 13 12 9 7 7 5 5 4 4 6 8
28 27 26 25 24 23 22 22 23 24 25 26 27 29 30 30 30 29 29 30 31 32 33 33 33 33 33 33 33 32 30 30 31 32 33 34 34 33 32 33 32 31 29 28 27 27 27 27 26 26 25 23 19 17 19 23 24 23 23 21 18 18 17 16 14 14 17 16 13 11 10 10 11 10 10 12 14 14 13 9 7 7 6 5 5 5 6 7
28 28 27 26 24 22 22 21 22 23 24 25 26 27 29 30 30 30 29 29 30 31 32 34 34 33 34 34 34 33 31 30 31 33 34 35 36 35 33 33 33 32 31 30 28 28 28 27 28 27 25 22 18 17 18 21 24 25 27 24 18 17 16 15 12 9 13 16 15 13 9 9 9 10 10 12 15 14 11 10 9 9 8 7 7 6 6 7
29 28 27 26 24 23 22 21 21 22 23 25 26 27 28 28 29 29 29 28 29 29 31 33 34 35 35 35 34 33 33 32 32 33 34 35 36 36 35 34 33 33 32 32 30 29 28 28 28 27 25 21 18 18 17 16 21 26 26 24 20 17 16 16 12 9 11 14 15 13 10 8 7 8 8 9 12 12 11 12 12 10 9 8 8 7 6 7
29 28 27 26 24 23 22 21 21 22 23 24 25 26 27 28 28 29 29 28 28 28 29 31 33 35 36 35 35 35 35 35 33 33 34 36 36 36 36 35 34 34 34 34 33 32 30 29 28 26 24 22 21 20 17 14 18 23 24 22 19 18 18 15 12 10 11 14 14 12 11 10 8 8 8 8 11 11 12 15 13 10 10 9 8 8 8 7
28 27 26 25 24 23 22 21 21 21 22 23 24 25 26 27 28 29 29 29 28 27 28 30 32 34 36 36 35 36 37 38 36 33 34 36 37 37 37 36 35 35 35 35 35 34 32 30 28 27 24 23 24 22 20 17 17 18 21 20 17 16 16 13 10 10 11 12 11 10 11 12 11 11 9 7 9 11 13 15 13 11 11 10 9 9 9 8
28 26 25 24 24 23 22 21 21 21 21 22 23 24 25 26 28 28 29 29 28 28 28 29 31 33 35 36 36 37 38 38 37 34 35 37 38 37 37 37 37 36 36 36 35 35 33 31 29 29 26 24 25 23 20 17 15 16 18 19 18 16 16 14 9 9 10 9 7 8 11 13 13 13 11 7 6 9 14 15 14 13 13 12 11 10 10 10
27 25 24 23 23 22 21 21 20 20 20 21 22 23 24 25 27 28 29 29 28 28 28 29 31 33 34 35 36 37 37 38 38 36 35 37 38 38 38 38 38 37 37 36 36 36 34 33 31 29 26 24 24 23 20 17 18 20 23 26 25 22 21 20 15 11 9 7 6 7 11 14 15 14 13 9 5 7 13 15 14 14 15 13 13 13 12 11
27 25 24 23 22 21 20 20 19 19 20 20 21 22 22 24 26 27 28 28 28 27 28 29 31 32 33 34 35 37 38 39 39 37 36 37 38 38 39 39 39 38 37 36 36 36 35 34 31 27 24 24 24 24 23 21 21 23 26 29 29 27 25 23 19 14 10 7 6 6 9 14 17 16 14 11 7 6 11 15 15 15 16 15 14 14 14 12
26 24 23 22 21 20 19 18 18 18 19 20 20 21 21 22 23 25 26 25 25 25 26 28 30 31 33 33 34 37 38 39 39 38 36 37 38 39 39 39 39 38 37 37 37 36 36 35 31 28 27 28 28 28 28 26 24 23 23 24 27 27 25 23 21 18 13 9 7 7 10 14 18 18 15 13 10 9 10 13 15 15 16 15 15 16 15 13
26 24 22 21 20 19 18 17 17 17 18 18 18 19 19 20 21 22 23 23 23 23 23 26 28 31 31 32 34 35 37 38 38 38 37 37 38 38 39 39 39 38 38 38 38 38 36 34 32 31 31 31 31 32 32 30 29 26 23 22 25 26 24 22 21 18 13 11 11 11 13 15 17 18 17 14 12 13 12 14 16 16 17 17 17 17 16 14
24 23 21 20 19 18 17 16 16 16 17 17 17 17 17 17 18 19 19 19 20 20 20 22 25 29 30 31 33 34 35 36 36 37 37 38 38 38 39 39 39 39 39 39 39 38 36 33 32 33 34 32 32 33 34 34 33 31 27 25 26 24 22 19 17 16 15 15 16 14 14 15 15 15 16 15 13 13 14 16 19 18 19 21 20 20 17 15
23 21 20 19 18 17 16 15 15 15 16 17 16 15 14 14 16 16 15 14 14 16 17 18 21 24 26 29 31 32 33 34 35 36 37 38 39 38 38 40 40 40 40 39 39 38 35 32 32 34 35 34 32 32 34 36 34 32 30 27 27 24 21 18 16 19 20 18 16 14 13 14 14 14 15 15 14 13 14 18 21 20 21 23 23 22 19 16
22 20 18 18 17 17 16 16 16 16 16 16 15 13 12 12 13 14 13 11 10 12 12 13 16 19 22 25 27 31 32 31 31 32 33 36 38 38 38 39 40 39 39 39 39 38 35 34 34 36 36 35 34 32 33 35 35 33 30 26 25 25 24 21 20 19 17 13 12 14 14 12 13 15 17 16 14 12 13 19 23 24 25 23 24 24 20 18
20 19 17 17 16 16 16 17 17 17 16 16 14 13 11 10 11 11 11 9 7 7 8 10 12 14 19 20 21 26 28 28 29 29 31 34 36 37 37 38 38 38 38 39 40 38 36 35 35 36 37 37 36 34 32 34 36 34 31 26 24 28 27 23 20 16 12 9 9 13 14 13 14 16 17 17 15 12 11 15 19 22 26 26 25 25 22 19
19 17 16 16 15 15 16 17 18 17 16 15 13 11 9 8 9 9 9 7 4 4 6 8 9 9 13 15 16 20 22 25 28 27 29 31 34 37 37 37 38 38 39 40 41 39 36 35 35 35 37 38 37 36 32 34 37 35 33 30 27 30 28 22 17 13 13 13 11 14 16 15 14 14 14 14 15 13 10 12 15 17 22 26 26 24 23 20
18 16 15 15 15 15 16 17 17 16 15 13 11 9 7 7 7 7 8 6 3 2 5 6 7 7 8 11 12 14 18 23 25 23 26 29 30 34 35 35 36 38 41 42 41 40 37 35 34 34 36 37 37 37 33 34 37 36 37 34 28 29 29 22 17 14 16 19 16 15 17 18 16 13 12 12 14 16 13 11 13 14 16 22 25 24 24 23
16 15 14 13 14 15 16 17 17 17 15 12 9 6 6 7 6 6 6 3 1 2 3 3 4 4 4 6 6 9 14 21 23 23 25 28 29 30 31 32 33 36 40 42 41 40 38 36 35 34 34 34 35 36 35 36 36 36 40 37 30 31 30 24 20 16 17 20 20 17 17 20 19 13 12 14 14 16 15 12 13 13 15 19 23 24 24 24
14 14 13 13 14 14 16 17 17 17 14 10 7 6 6 5 5 4 4 4 2 2 3 2 2 3 4 4 4 7 11 15 19 21 24 27 28 29 30 31 33 34 37 40 40 40 39 38 37 36 34 32 32 35 36 36 34 36 42 40 35 36 32 25 21 18 18 20 22 22 19 19 21 17 14 15 14 13 13 13 12 13 15 17 21 25 26 25
12 12 12 13 14 15 16 17 17 16 12 9 7 6 4 2 4 5 5 5 3 2 2 2 2 2 3 5 7 10 11 12 15 16 21 25 24 25 29 31 32 32 34 37 37 38 39 39 39 39 36 31 30 34 38 37 36 39 45 43 38 39 35 28 24 21 22 20 19 23 23 21 22 21 18 16 15 13 12 13 13 14 15 13 16 23 26 26
11 10 11 13 13 14 15 16 16 13 9 7 6 5 4 4 5 7 7 7 7 5 2 2 3 4 5 5 9 10 10 12 12 9 14 20 20 21 25 28 30 31 32 33 33 34 37 37 37 37 36 32 30 33 38 40 40 42 46 45 41 42 38 32 29 25 24 21 17 20 25 25 23 22 22 20 16 15 13 12 13 14 15 12 13 21 25 24
10 9 10 12 13 13 14 15 15 11 8 7 6 5 6 6 7 7 6 7 10 6 2 3 4 6 9 8 9 11 8 8 8 6 7 11 12 16 21 24 27 29 29 29 29 30 30 30 31 31 33 33 32 34 37 41 42 43 46 48 45 44 39 33 31 27 25 22 18 19 24 28 27 25 25 23 20 18 16 14 13 14 14 12 12 17 21 22
9 9 10 11 13 13 13 14 13 10 8 8 6 4 3 3 5 6 6 7 9 8 6 4 7 13 16 12 11 11 6 5 6 6 4 6 8 12 20 24 27 28 27 26 28 29 26 24 24 26 29 32 32 33 36 39 42 44 46 49 47 43 38 33 30 30 30 26 21 22 25 27 29 28 24 23 23 22 19 17 15 15 14 12 12 14 16 18
8 9 10 11 13 12 12 14 12 9 7 6 5 2 0 0 3 5 6 6 7 8 10 8 10 18 19 15 13 12 10 8 9 8 7 11 13 14 22 28 30 29 27 26 30 32 29 25 23 24 26 28 27 29 34 36 39 42 45 49 49 43 39 33 29 31 32 30 26 27 29 29 29 27 24 22 22 21 19 18 17 15 14 13 14 16 16 17
7 8 10 11 12 12 12 12 10 8 6 5 3 1 2 3 3 4 5 5 6 10 13 10 13 19 18 17 17 16 16 14 13 12 12 15 16 16 24 30 31 30 29 29 32 35 34 29 25 24 26 28 28 30 35 35 36 41 43 48 50 44 40 35 29 30 32 32 31 32 34 31 29 28 26 23 20 18 18 20 20 18 16 15 16 17 18 19
7 8 9 10 12 13 11 10 8 7 6 4 3 2 3 3 3 4 6 6 6 11 12 11 16 19 16 17 20 20 20 18 17 17 19 19 17 18 23 27 30 32 32 32 33 36 37 31 26 25 27 30 32 32 34 33 34 38 39 43 48 46 43 39 32 28 31 33 35 37 36 33 31 30 29 25 21 19 18 20 22 21 19 17 17 18 19 19
7 7 7 9 10 11 10 10 9 8 6 2 1 2 4 3 2 3 4 4 5 10 10 10 16 19 15 16 20 21 23 23 23 22 22 21 20 21 22 25 30 34 35 35 35 36 38 34 30 31 29 30 31 30 31 31 32 35 34 38 45 45 44 43 36 29 30 34 36 38 37 35 33 31 29 27 26 23 22 21 21 21 20 19 18 18 19 20
7 5 5 7 9 8 8 8 8 11 9 4 2 2 4 3 2 2 4 4 5 8 10 8 13 19 19 18 18 18 22 24 23 22 21 21 23 23 23 24 29 35 36 36 35 37 41 38 35 36 34 30 27 25 26 27 29 32 33 37 44 45 41 40 38 32 31 34 35 36 38 36 33 31 30 30 30 28 28 26 23 21 20 20 21 21 21 21
7 5 4 5 8 9 8 6 7 10 7 4 3 1 2 5 4 2 4 5 4 6 8 8 11 18 21 20 17 16 20 23 22 22 22 22 22 22 23 24 27 33 36 35 35 37 41 40 37 39 39 33 29 26 25 24 26 29 33 39 44 45 41 38 38 35 33 33 33 34 35 34 32 33 34 34 33 31 29 27 24 22 22 22 22 22 21 21
7 7 5 4 6 9 7 6 8 8 4 2 2 1 3 5 5 2 2 3 3 3 5 7 10 14 18 22 21 18 20 22 23 23 24 25 24 22 22 24 27 30 32 32 34 37 41 42 37 38 39 34 29 28 29 28 29 32 35 41 45 44 41 39 38 37 36 36 33 32 34 32 32 34 35 35 35 32 29 28 26 23 22 23 23 21 20 19
6 7 7 5 6 8 7 6 7 6 6 5 3 1 2 5 5 5 4 3 2 1 3 6 8 7 9 16 17 17 19 21 23 24 24 25 26 24 23 24 26 28 29 31 32 34 39 42 38 35 37 34 28 27 30 31 32 34 37 42 47 44 39 39 40 39 39 38 34 32 34 34 33 34 34 33 33 31 29 30 30 27 23 23 23 22 21 20
6 7 7 5 6 7 6 6 6 6 9 11 7 3 2 3 5 6 5 4 2 1 0 3 5 5 5 8 10 11 14 17 20 23 25 26 25 24 23 24 27 29 30 31 32 33 35 38 38 35 34 34 30 28 34 37 35 36 38 39 45 45 40 40 42 41 41 41 37 34 34 35 35 35 32 29 28 29 32 32 29 28 25 23 24 23 22 22
7 8 6 5 6 7 4 5 7 8 10 12 10 7 3 3 4 5 6 5 2 2 1 0 3 4 4 6 6 7 8 12 16 18 21 24 25 24 23 23 26 30 31 31 33 33 32 34 37 37 34 34 31 31 37 41 39 39 39 39 44 46 43 42 43 42 42 42 39 36 34 34 36 35 30 28 25 27 33 33 26 23 22 22 24 25 23 23
7 7 7 6 7 7 6 5 6 7 8 10 10 10 7 3 3 2 5 5 4 2 2 2 3 4 4 5 6 6 6 10 15 17 16 17 19 21 22 23 25 28 30 31 32 32 33 34 35 36 38 36 34 35 40 43 42 41 39 39 41 43 44 45 44 43 43 42 39 37 35 36 37 35 31 30 27 24 28 30 25 22 22 22 23 24 25 25
6 6 7 7 7 8 7 5 6 6 7 8 10 12 11 5 2 1 3 4 5 4 2 3 4 5 3 4 6 6 7 8 13 20 21 19 17 17 18 21 24 27 30 30 30 30 32 35 35 35 38 39 36 38 43 46 44 40 38 39 37 37 42 47 47 46 45 42 40 38 37 36 38 37 34 33 29 25 25 27 25 24 25 24 23 24 25 26
6 6 7 6 5 6 6 5 6 7 6 7 8 11 12 8 1 2 1 2 3 4 3 3 4 4 3 2 3 3 4 4 6 16 20 19 18 17 17 18 19 23 28 31 31 30 31 36 36 35 36 37 37 40 46 48 45 40 38 40 39 36 38 44 47 49 49 44 40 40 39 37 36 37 36 34 31 27 25 25 25 25 25 26 25 25 24 25
8 7 7 6 4 5 6 5 6 6 7 6 7 8 11 9 2 3 3 2 1 2 3 4 3 3 2 2 0 0 1 2 1 7 12 13 15 17 18 19 19 20 24 29 33 33 31 34 38 38 38 36 35 38 46 50 47 41 38 40 42 38 36 40 44 47 50 47 41 40 40 37 36 37 37 36 33 29 27 27 27 26 25 26 26 25 24 23
9 9 7 5 4 4 5 5 5 6 6 6 5 6 8 9 6 1 4 4 3 1 2 4 3 3 2 2 1 1 1 2 3 4 5 6 10 14 15 15 18 19 20 24 31 35 34 34 37 40 40 39 38 37 41 45 46 44 40 39 42 41 38 37 38 41 47 49 45 42 41 40 38 37 39 39 35 28 25 26 27 25 25 24 24 24 24 22
10 9 7 5 6 6 6 5 3 4 6 6 6 6 6 6 6 4 1 3 4 3 4 4 3 1 1 1 1 0 1 2 2 4 4 2 4 9 10 11 15 18 19 21 27 33 37 36 37 39 40 41 42 41 41 43 46 48 46 42 42 44 42 39 38 39 43 47 49 47 45 43 42 40 39 39 36 31 25 22 22 21 20 21 22 23 23 23
10 9 7 7 8 8 7 5 3 3 5 6 6 5 5 5 5 5 4 1 1 3 4 5 6 5 3 3 2 2 1 2 2 3 4 4 3 4 6 10 14 18 20 22 25 29 35 37 38 41 42 42 43 42 43 47 49 50 49 47 46 47 45 41 41 41 41 42 46 48 46 45 44 43 42 41 39 35 31 28 24 22 20 19 20 22 23 23
10 9 9 9 9 8 6 4 4 4 4 4 5 5 5 5 5 5 4 3 3 2 1 1 3 4 4 5 5 5 4 3 3 3 5 6 4 2 4 7 10 15 19 22 24 27 32 36 38 41 44 45 43 41 43 46 47 45 44 44 46 49 47 42 39 40 41 40 41 43 44 44 45 44 45 44 41 38 37 36 33 30 28 24 21 21 24 25
Wind_Direction
291 288 286 283 280 275 271 266 262 259 258 257 255 253 251 250 249 248 247 245 243 241 238 236 234 233 233 232 231 229 228 227 226 227 227 226 228 226 231 235 229 227 229 226 227 229 228 228 227 226 224 223 217 213 218 221 221 227 234 232 240 291 14 11 6 30 75 102 115 132 142 142 144 148 143 144 143 121 96 70 68 81 101 110 111 113 118 119
292 288 286 283 281 278 274 270 265 261 258 256 255 254 251 249 249 248 248 247 246 243 241 239 236 234 234 233 231 228 226 226 227 227 225 225 229 226 228 233 229 226 227 225 226 228 228 227 227 225 223 222 218 212 216 220 220 222 224 224 236 276 28 26 35 75 105 112 120 129 134 139 145 144 137 149 154 123 90 73 72 82 97 109 112 113 114 113
294 289 286 283 281 278 276 273 269 264 260 256 255 254 252 250 248 247 247 248 248 246 244 241 239 236 234 234 232 230 226 225 227 226 225 225 229 227 226 231 229 226 228 227 228 230 230 230 229 226 223 221 217 213 215 218 218 217 213 211 235 266 45 35 70 102 120 123 128 130 129 139 150 147 144 150 144 129 96 79 81 86 95 110 113 115 117 114
300 293 288 284 281 279 277 274 271 267 262 258 255 253 252 251 248 247 246 246 248 248 246 244 242 239 236 235 233 232 228 226 226 225 225 225 227 228 225 228 229 227 228 228 229 231 230 231 231 227 224 221 216 212 212 215 215 211 204 194 216 235 72 13 105 116 130 135 133 131 133 144 153 149 146 145 136 133 106 85 86 85 91 110 116 121 121 118
307 299 292 286 282 279 278 276 273 270 266 261 256 253 251 250 248 246 245 244 245 246 247 246 244 241 239 237 234 233 231 228 226 224 225 224 225 227 226 226 228 227 227 227 229 230 229 227 227 225 223 218 212 210 210 212 212 208 200 190 202 217 162 206 152 126 140 150 141 138 143 148 153 148 148 149 137 132 110 97 96 84 84 97 113 124 124 120
313 305 297 289 283 279 277 275 274 271 268 265 259 254 251 250 248 246 244 242 242 243 244 246 245 244 241 239 236 234 233 230 227 226 224 223 223 225 226 225 226 225 224 226 227 227 226 222 219 219 218 216 211 208 207 207 208 205 197 188 193 206 180 197 189 146 149 163 155 151 148 150 156 151 154 162 151 137 117 108 106 96 94 92 107 124 126 124
316 310 303 295 287 280 276 274 273 271 269 266 263 258 253 250 249 247 244 241 241 240 240 242 244 244 243 240 238 235 234 231 229 227 224 223 223 223 225 224 223 223 223 223 224 224 223 218 214 212 213 215 211 209 209 206 206 203 193 184 183 189 189 193 191 164 156 168 172 165 153 155 160 153 161 173 162 145 130 121 115 109 110 120 131 129 132 131
316 312 308 301 294 285 278 273 271 270 269 266 264 262 257 253 249 247 245 242 239 239 238 238 240 241 242 241 239 236 234 232 229 228 225 223 223 223 224 224 222 221 221 221 221 221 218 214 210 209 211 213 210 209 211 207 205 200 193 191 182 179 193 195 190 176 171 178 187 183 166 164 165 159 169 174 161 152 148 142 128 115 114 136 149 141 142 138
315 312 309 304 298 291 283 275 270 268 268 267 265 263 260 256 252 248 246 243 240 238 237 236 236 238 239 240 238 237 234 232 230 230 227 224 222 222 223 223 220 220 221 220 220 219 217 213 210 209 210 212 212 209 209 208 205 199 194 194 185 180 192 198 197 186 179 184 191 195 184 171 167 169 180 177 171 172 166 157 144 128 119 129 146 146 145 144
313 310 308 304 299 294 288 280 273 268 267 267 266 264 262 259 256 251 247 245 242 239 237 235 235 235 236 237 236 236 234 231 229 229 228 225 223 222 222 222 219 218 220 219 218 216 213 212 212 213 211 209 209 206 208 208 205 202 198 193 187 189 192 196 204 194 185 191 189 192 195 184 174 181 191 188 186 185 177 168 154 145 138 129 138 147 142 141
311 309 307 304 299 294 289 283 277 271 267 265 265 264 263 261 258 254 249 246 244 241 238 236 234 234 233 234 234 233 233 231 229 227 227 225 223 222 222 222 220 217 219 219 217 215 211 211 213 215 213 211 205 199 203 204 203 204 199 194 189 188 188 193 205 200 191 193 187 184 196 194 185 191 201 197 192 191 189 182 162 156 153 136 136 151 141 134
310 307 305 302 299 294 288 283 278 273 269 266 265 264 264 262 260 256 252 248 245 243 240 237 235 234 233 233 233 231 231 231 229 227 227 226 224 221 221 222 220 216 217 218 216 215 213 212 213 213 213 216 210 200 199 197 200 204 197 188 183 182 186 190 200 203 196 193 183 178 194 196 189 199 210 204 193 190 194 192 173 166 164 152 151 159 148 135
309 306 304 302 299 294 288 282 277 273 269 266 265 264 264 263 261 258 255 250 246 244 242 240 237 235 235 234 232 230 228 228 228 227 225 225 224 221 220 221 220 216 215 217 217 215 214 212 211 212 213 216 214 207 203 196 196 201 197 184 172 178 189 193 196 196 192 193 182 172 190 199 195 203 212 206 190 183 192 201 193 180 174 172 173 170 161 147
309 306 304 302 300 296 290 284 278 273 270 267 265 263 263 263 263 260 257 253 248 244 242 240 239 237 235 234 233 230 225 224 226 227 225 223 224 222 219 220 220 217 215 216 217 216 216 214 212 212 212 212 210 209 209 203 195 197 200 196 186 184 191 198 201 188 185 194 187 176 188 204 206 207 207 204 192 188 199 208 205 192 184 184 183 177 174 167
310 307 305 303 300 297 293 288 282 277 272 269 266 264 263 262 263 262 260 255 250 245 241 239 238 237 236 234 233 230 225 223 223 225 225 223 223 223 220 218 219 217 215 216 216 216 216 216 216 215 211 205 204 207 208 208 202 199 203 207 204 198 195 199 203 189 185 197 197 190 193 201 212 213 211 208 203 206 209 200 200 201 195 189 188 184 182 178
311 308 306 304 302 299 296 291 286 281 277 272 268 266 264 263 262 262 261 258 253 247 242 239 237 236 236 234 232 229 226 224 221 220 223 223 222 222 221 218 218 217 215 215 216 216 214 214 216 216 210 201 199 203 199 200 204 202 202 204 204 203 200 201 202 190 185 194 198 198 201 207 218 222 224 216 209 217 210 198 202 213 209 196 192 191 186 185
311 310 308 306 304 302 298 294 290 285 280 276 272 268 265 263 262 261 260 259 255 250 244 240 237 234 234 233 231 229 227 225 222 218 219 222 221 220 220 218 217 217 216 215 216 217 215 213 213 214 211 202 198 198 193 192 196 198 202 202 202 204 203 205 215 207 195 195 196 201 208 216 224 227 235 221 206 215 210 205 214 222 218 202 195 198 192 192
313 312 310 308 306 304 301 298 294 289 285 279 275 270 266 263 262 260 260 258 255 251 245 241 238 235 233 231 230 229 227 227 226 221 218 221 221 220 219 218 216 216 216 216 216 217 216 214 212 211 208 201 198 194 187 187 187 186 194 195 191 193 194 193 203 211 203 196 199 213 217 221 227 230 238 233 211 215 210 211 218 219 218 204 193 200 199 200
315 314 312 308 306 305 303 301 297 294 290 284 278 273 268 264 262 260 259 258 255 250 245 241 238 235 233 230 229 229 228 228 228 224 219 219 222 220 219 219 218 217 216 216 216 217 216 215 214 211 206 201 198 189 179 182 183 182 190 194 189 186 191 190 187 192 193 193 212 223 221 225 230 234 236 233 226 219 211 212 212 211 216 206 193 199 202 206
317 315 312 309 308 307 305 304 301 298 294 289 283 277 271 266 263 261 259 257 255 250 245 242 240 237 233 230 228 227 227 227 227 226 221 219 221 221 220 220 219 218 216 215 216 216 216 216 215 212 208 203 197 186 179 181 184 190 198 202 196 189 190 192 188 184 182 196 224 229 228 232 235 237 238 232 229 222 209 210 211 211 216 209 200 203 202 205
317 314 312 311 311 310 309 307 305 302 298 293 287 281 275 269 266 263 261 258 255 250 245 242 239 238 235 231 228 227 227 226 226 226 222 220 221 220 221 220 220 219 217 216 217 216 216 215 212 210 209 204 196 189 186 183 183 191 204 211 208 198 188 187 190 185 181 199 227 237 233 233 234 234 237 233 227 223 212 208 211 214 218 212 204 206 204 202
316 314 312 313 314 313 312 310 309 306 300 295 290 285 278 272 268 265 262 260 255 250 245 240 238 237 234 232 229 227 228 226 225 225 222 221 221 220 221 221 220 219 217 217 217 216 215 214 210 208 209 207 198 192 190 187 184 188 198 209 212 207 193 188 193 187 185 211 231 234 227 226 230 231 233 236 232 230 222 210 208 209 214 215 208 205 202 197
315 314 314 315 315 314 313 312 312 309 303 298 293 286 280 275 271 267 262 259 256 252 245 240 237 235 233 231 229 228 228 227 225 224 221 220 221 220 220 221 220 220 219 217 218 217 215 212 210 209 210 209 203 197 193 192 191 188 190 199 206 208 198 189 193 191 198 221 231 230 225 226 234 236 236 238 238 240 235 220 212 207 209 212 208 205 199 193
314 313 315 316 315 314 313 314 316 312 306 302 297 290 281 274 272 268 262 257 257 256 250 242 238 235 232 230 230 229 228 226 225 224 221 220 220 219 219 220 220 220 220 219 218 217 214 211 209 210 211 209 206 202 196 196 197 191 188 196 204 203 195 189 188 194 206 222 230 228 227 231 237 241 238 234 232 236 234 223 215 213 215 213 206 203 198 191
313 313 315 316 316 314 315 317 318 316 312 308 303 294 282 275 270 267 265 259 254 257 255 247 240 236 231 228 229 229 228 225 223 222 220 219 219 218 218 219 219 220 220 220 219 217 213 210 209 209 210 209 207 204 200 198 198 196 188 189 201 199 193 191 187 193 209 221 227 225 226 233 233 233 231 225 227 234 229 219 213 215 222 216 204 202 199 191
312 313 316 317 315 315 317 321 321 321 319 313 308 299 288 278 267 264 266 264 260 259 252 243 239 238 234 228 227 229 228 225 220 219 218 217 217 218 218 218 217 218 219 219 219 217 213 211 210 210 209 208 206 204 202 198 197 197 184 178 197 200 191 191 192 197 203 199 213 218 218 225 223 223 225 221 225 232 225 215 212 220 223 212 200 201 202 195
311 313 316 317 314 316 320 322 324 324 321 315 305 293 280 272 265 263 269 272 285 272 242 227 219 225 231 227 224 223 224 225 221 218 218 215 215 216 216 217 216 215 216 217 219 217 213 212 211 211 211 209 205 203 201 197 197 194 179 178 197 202 197 194 195 203 195 182 200 215 214 216 210 210 215 217 221 222 221 218 214 224 222 205 197 200 202 199
309 312 317 317 316 319 322 324 326 325 324 317 302 284 269 268 262 264 277 290 325 275 238 220 203 202 215 223 224 214 213 222 216 208 213 213 213 214 214 215 216 216 216 217 218 217 214 211 211 212 213 211 207 202 199 198 198 191 180 182 193 201 204 197 189 202 199 188 196 210 214 213 203 197 203 207 214 216 217 215 210 216 212 203 202 203 201 199
306 312 318 317 318 322 324 326 328 329 329 321 307 297 282 271 258 256 265 270 302 257 235 237 217 197 202 223 227 207 207 219 214 201 205 210 210 210 210 211 213 216 218 218 217 217 214 211 209 210 213 214 208 203 200 197 197 191 183 184 190 197 201 197 192 204 208 200 196 199 207 208 197 183 186 194 202 210 210 204 203 206 205 205 210 210 206 202
305 312 318 319 321 325 327 329 331 333 332 329 329 323 301 270 238 227 206 184 181 192 191 212 196 169 188 200 189 190 199 216 220 207 200 205 206 203 205 208 210 214 217 219 218 217 216 212 210 208 208 211 207 203 202 196 193 190 186 187 192 196 198 197 196 205 214 209 201 201 206 208 197 180 177 187 189 196 203 202 202 205 206 212 220 216 209 202
302 311 318 323 327 330 332 334 336 336 333 338 349 341 325 247 188 170 158 154 127 125 162 156 137 131 163 180 175 182 194 209 217 204 196 204 205 199 202 204 206 210 215 218 217 216 216 214 213 209 205 206 204 202 202 195 188 187 188 190 195 199 199 194 191 203 218 215 206 208 210 210 200 186 185 188 183 186 196 200 203 208 209 215 222 213 203 199
299 307 318 327 330 332 335 338 339 335 333 348 3 12 43 108 151 144 148 141 101 72 42 108 106 82 106 158 182 175 185 205 203 184 188 201 204 200 201 201 201 206 211 214 214 215 216 215 213 210 204 201 201 201 202 197 190 188 190 192 196 200 198 191 189 200 215 217 212 213 213 212 203 192 194 192 184 189 194 197 203 209 211 210 206 198 194 196
294 302 317 327 331 333 339 343 340 334 338 5 29 56 85 114 136 138 159 156 129 119 118 109 96 96 113 148 175 158 164 198 182 151 172 193 204 203 197 199 200 201 206 207 204 208 213 212 212 209 203 200 198 199 202 200 193 190 192 193 196 200 195 188 190 200 208 211 214 217 217 216 209 200 200 196 192 195 197 199 204 205 207 202 192 187 187 194
289 299 312 327 332 332 343 348 342 340 353 20 49 75 98 110 135 158 186 179 169 182 184 150 120 124 131 144 150 142 154 197 156 140 154 162 184 194 188 195 198 194 199 198 192 195 197 197 204 206 205 204 202 199 201 202 198 194 193 193 197 199 194 189 195 204 205 202 211 222 221 218 214 208 206 204 203 202 200 202 204 203 204 195 185 187 192 196
289 297 306 326 332 333 348 351 344 353 12 38 58 69 138 171 160 185 200 192 206 204 181 163 140 140 146 148 139 141 169 188 155 146 170 172 178 180 180 195 198 189 190 191 187 188 183 178 188 198 201 203 203 204 204 203 202 200 195 193 196 198 197 197 203 208 204 197 205 220 222 220 217 213 213 214 213 212 209 209 208 204 204 198 191 194 201 204
288 294 307 325 330 335 351 352 346 359 17 36 37 355 267 249 211 220 234 219 206 186 175 169 158 157 160 157 149 153 170 176 158 159 181 182 184 182 180 192 195 185 186 189 187 185 179 173 181 194 202 202 201 207 208 204 203 204 199 195 196 197 199 202 206 211 207 199 205 218 222 222 219 214 213 212 212 213 214 216 214 207 202 200 198 198 202 207
282 292 310 325 332 340 346 343 349 8 16 19 12 336 312 293 238 215 228 231 206 187 187 186 177 175 172 170 170 166 170 177 175 185 192 184 186 190 185 189 189 185 186 190 191 187 178 173 177 187 199 205 206 209 211 208 205 206 201 197 197 198 202 204 206 212 212 206 209 217 220 221 219 215 212 213 215 214 213 216 215 209 203 204 204 203 205 209
276 291 311 323 334 339 331 323 341 4 7 351 303 335 345 332 276 226 223 230 213 202 204 198 192 192 189 190 186 173 175 186 188 193 193 185 189 193 188 187 186 186 189 191 193 189 181 176 180 186 193 201 207 211 213 209 207 207 202 197 197 199 204 207 205 208 212 210 211 215 218 220 220 218 217 220 224 221 216 216 215 211 208 210 213 210 209 210
275 290 306 318 325 322 307 305 336 1 0 332 287 322 349 4 344 260 215 206 204 210 219 214 199 197 196 202 199 180 183 195 196 197 194 190 195 195 191 189 186 186 191 194 192 186 182 181 186 190 192 197 203 207 210 208 206 207 201 195 197 198 202 207 206 205 208 211 213 214 218 222 224 224 225 225 227 226 221 214 211 212 212 213 218 219 217 215
272 276 271 301 310 301 294 307 349 8 1 317 289 290 4 12 353 278 222 213 206 209 223 224 204 197 196 206 212 200 196 201 202 202 200 198 201 199 194 195 193 192 193 194 191 187 183 185 190 192 192 199 202 199 198 195 194 198 198 195 196 197 201 203 203 202 202 207 211 212 216 222 223 225 227 228 229 230 227 218 211 210 210 210 216 220 221 220
270 273 265 279 298 297 304 342 7 19 20 314 301 330 16 7 353 335 280 246 230 201 212 217 211 203 201 209 220 221 212 209 208 207 206 204 204 206 202 198 199 201 199 193 190 190 187 188 193 194 193 199 202 200 198 189 184 190 194 194 194 196 201 201 199 197 197 202 208 210 215 220 220 220 224 228 230 231 228 220 211 209 209 210 212 216 218 218
262 273 275 281 304 313 329 355 7 23 31 22 9 350 355 353 357 13 4 317 294 217 198 205 214 224 217 213 218 221 216 213 215 216 214 208 206 212 212 203 200 204 205 199 192 191 192 192 194 196 196 199 200 200 197 189 186 188 190 193 193 194 200 201 199 197 197 202 208 208 212 218 219 218 221 226 230 233 226 214 208 209 211 210 209 212 214 215
253 263 272 284 311 320 329 343 347 4 23 28 25 350 294 318 346 6 4 348 334 319 206 202 219 241 234 208 207 216 209 205 213 219 221 217 215 219 217 208 203 203 204 203 198 195 192 192 196 198 197 197 196 193 188 185 187 188 186 190 193 194 198 202 200 199 200 205 209 209 211 216 219 220 222 224 226 228 221 210 205 207 209 211 213 213 215 216
251 261 271 277 290 298 309 341 354 6 17 22 18 360 316 278 309 347 357 358 346 296 308 288 239 241 232 210 212 227 217 207 212 218 221 222 224 228 226 217 210 204 202 203 202 201 196 192 195 197 195 194 194 191 187 186 189 189 186 188 191 195 200 202 200 200 202 207 210 211 212 214 218 223 227 227 226 226 219 210 206 208 207 209 212 214 217 217
254 274 286 282 287 304 323 353 9 16 14 11 11 13 6 305 265 322 350 355 357 317 272 281 283 263 247 228 227 249 255 234 223 218 218 218 220 225 227 223 217 210 204 202 201 203 201 197 196 194 191 193 196 195 191 189 192 192 189 188 191 196 202 203 201 200 204 209 211 213 215 214 217 224 228 228 229 227 219 211 208 207 204 205 209 213 217 217
253 274 284 286 301 312 321 351 7 8 8 2 3 15 16 355 269 259 338 348 4 358 313 290 288 277 261 219 217 246 274 263 231 219 216 212 211 217 221 221 220 214 209 204 202 202 202 201 202 199 192 189 190 194 193 191 192 192 191 191 192 196 202 204 204 202 204 209 210 213 217 216 217 222 226 228 229 228 226 223 216 208 206 210 215 217 218 218
243 247 258 272 299 305 310 351 1 351 355 357 356 9 17 13 321 209 257 326 358 7 343 309 300 303 305 243 202 239 299 305 237 219 218 216 215 221 224 222 220 216 212 207 204 203 203 203 205 207 203 192 184 186 192 193 191 188 192 197 196 196 199 201 204 204 204 207 211 213 215 217 220 223 226 228 229 230 232 231 224 217 216 219 224 224 223 221
235 237 248 260 280 298 316 341 345 339 344 348 351 4 16 20 26 197 211 250 306 9 344 332 357 16 338 297 220 67 345 3 172 208 220 223 223 228 231 227 221 216 213 210 207 204 204 204 203 206 211 208 197 189 191 193 191 188 194 200 200 201 201 198 199 203 205 208 213 215 214 215 220 224 226 227 227 228 231 228 223 221 221 221 225 228 226 224
234 237 246 258 263 277 295 303 318 335 337 336 350 4 13 20 27 139 204 227 241 256 305 315 359 61 59 5 31 100 182 167 160 189 214 228 229 230 234 232 224 216 211 211 211 208 207 207 204 204 206 209 209 204 196 195 196 196 198 201 202 205 206 200 198 201 204 208 213 215 214 216 220 224 226 227 225 225 228 223 214 212 214 216 222 225 226 226
235 239 245 250 252 253 255 265 298 336 328 328 351 6 8 16 31 55 150 231 243 241 251 275 296 329 84 33 14 6 138 141 183 205 206 211 217 218 223 222 217 214 209 209 212 212 212 212 209 205 202 200 203 206 201 199 202 202 203 206 206 206 207 206 203 202 204 208 211 214 215 217 221 224 226 227 224 222 221 211 199 199 206 212 216 220 222 224
231 236 240 245 251 253 253 267 304 320 314 325 346 359 2 6 28 47 51 47 244 240 239 249 261 262 249 247 257 257 133 124 196 197 185 195 202 198 209 212 212 211 209 209 211 211 213 215 212 209 205 199 199 200 196 196 200 202 204 208 211 210 210 210 208 207 208 209 210 213 215 217 220 223 225 226 226 224 224 224 222 223 225 221 219 222 222 221
228 229 232 240 252 256 255 266 286 284 290 319 337 349 2 5 16 28 28 38 52 47 52 233 251 257 251 245 244 246 238 226 222 184 173 195 208 207 215 216 218 217 212 210 212 210 211 213 212 212 208 201 198 198 193 192 197 200 202 207 211 213 214 214 211 210 211 211 212 215 217 218 220 222 223 224 227 229 231 235 239 239 235 228 223 224 224 223